When you browse on this site, cookies collect data to enhance your experience and personalize the content and advertising you see.
Visit our Privacy Policy to learn more. By continuing to use the site, you agree to this use of cookies and data.

Stündliche Wetter Mingachevir

Heute, 25 September, Freitag

Zeit Temperatur Niederschläge Wind Luftdruck Luftfeuchtigkeit
00:00 +21°C° 0 mm 2 m/S 753 mmHg 65%
01:00 +21°C° 0.1 mm 2 m/S 753 mmHg 67%
02:00 +21°C° 0.1 mm 1 m/S 752 mmHg 70%
03:00 +21°C° 0.1 mm 1 m/S 752 mmHg 72%
04:00 +21°C° 0 mm 1 m/S 752 mmHg 74%
05:00 +19°C° 0 mm 0 m/S 752 mmHg 75%
06:00 +18°C° 0 mm 0 m/S 752 mmHg 76%
07:00 +22°C° 0 mm 1 m/S 752 mmHg 68%
08:00 +24°C° 0 mm 1 m/S 752 mmHg 59%
09:00 +26°C° 0 mm 1 m/S 752 mmHg 51%
10:00 +28°C° 0 mm 2 m/S 752 mmHg 46%
11:00 +29°C° 0 mm 2 m/S 751 mmHg 40%
12:00 +30°C° 0 mm 3 m/S 751 mmHg 35%
13:00 +31°C° 0 mm 3 m/S 751 mmHg 34%
14:00 +31°C° 0 mm 3 m/S 750 mmHg 32%
15:00 +33°C° 0 mm 3 m/S 750 mmHg 31%
16:00 +30°C° 0 mm 3 m/S 750 mmHg 33%
17:00 +29°C° 0 mm 3 m/S 750 mmHg 36%
18:00 +28°C° 0 mm 2 m/S 750 mmHg 39%
19:00 +27°C° 0 mm 3 m/S 750 mmHg 39%
20:00 +26°C° 0 mm 4 m/S 750 mmHg 39%
21:00 +25°C° 0 mm 4 m/S 751 mmHg 40%
22:00 +23°C° 0 mm 4 m/S 750 mmHg 44%
23:00 +22°C° 0 mm 3 m/S 750 mmHg 49%

Morgen, 26 September, Samstag

Zeit Temperatur Niederschläge Wind Luftdruck Luftfeuchtigkeit
00:00 +21°C° 0 mm 3 m/S 750 mmHg 53%
01:00 +21°C° 0 mm 2 m/S 750 mmHg 57%
02:00 +21°C° 0 mm 1 m/S 750 mmHg 61%
03:00 +19°C° 0 mm 0 m/S 750 mmHg 64%
04:00 +19°C° 0.1 mm 0 m/S 750 mmHg 64%
05:00 +19°C° 0.1 mm 0 m/S 750 mmHg 65%
06:00 +19°C° 0.1 mm 0 m/S 750 mmHg 65%
07:00 +22°C° 0.1 mm 1 m/S 750 mmHg 59%
08:00 +24°C° 0.1 mm 1 m/S 750 mmHg 53%
09:00 +25°C° 0.1 mm 1 m/S 750 mmHg 47%
10:00 +27°C° 0.1 mm 2 m/S 750 mmHg 41%
11:00 +28°C° 0.1 mm 2 m/S 749 mmHg 35%
12:00 +29°C° 0.1 mm 3 m/S 749 mmHg 29%
13:00 +30°C° 0 mm 3 m/S 749 mmHg 28%
14:00 +30°C° 0 mm 3 m/S 749 mmHg 26%
15:00 +31°C° 0 mm 3 m/S 749 mmHg 25%
16:00 +29°C° 0 mm 3 m/S 749 mmHg 28%
17:00 +28°C° 0 mm 2 m/S 749 mmHg 30%
18:00 +27°C° 0 mm 2 m/S 749 mmHg 33%
19:00 +26°C° 0 mm 3 m/S 750 mmHg 37%
20:00 +25°C° 0 mm 3 m/S 750 mmHg 42%
21:00 +23°C° 0 mm 4 m/S 751 mmHg 46%
22:00 +22°C° 0.1 mm 3 m/S 751 mmHg 50%
23:00 +23°C° 0.1 mm 2 m/S 751 mmHg 54%

übermorgen, 27 September, Sonntag

Zeit Temperatur Niederschläge Wind Luftdruck Luftfeuchtigkeit
00:00 +21°C° 0.1 mm 2 m/S 751 mmHg 58%
01:00 +22°C° 0 mm 1 m/S 751 mmHg 60%
02:00 +21°C° 0 mm 1 m/S 751 mmHg 62%
03:00 +21°C° 0 mm 1 m/S 751 mmHg 63%
04:00 +18°C° 0 mm 0 m/S 752 mmHg 64%
05:00 +18°C° 0 mm 0 m/S 752 mmHg 65%
06:00 +18°C° 0 mm 0 m/S 752 mmHg 66%
07:00 +20°C° 0 mm 0 m/S 752 mmHg 58%
08:00 +24°C° 0 mm 1 m/S 753 mmHg 49%
09:00 +26°C° 0 mm 1 m/S 753 mmHg 40%
10:00 +28°C° 0 mm 2 m/S 753 mmHg 36%
11:00 +29°C° 0 mm 2 m/S 753 mmHg 31%
12:00 +30°C° 0 mm 3 m/S 753 mmHg 27%
13:00 +30°C° 0 mm 3 m/S 753 mmHg 26%
14:00 +31°C° 0 mm 3 m/S 752 mmHg 26%
15:00 +31°C° 0 mm 3 m/S 752 mmHg 25%
16:00 +30°C° 0 mm 3 m/S 753 mmHg 28%
17:00 +28°C° 0 mm 3 m/S 753 mmHg 30%
18:00 +27°C° 0 mm 3 m/S 754 mmHg 33%
19:00 +25°C° 0 mm 4 m/S 754 mmHg 38%
20:00 +23°C° 0 mm 5 m/S 755 mmHg 43%
21:00 +21°C° 0 mm 6 m/S 756 mmHg 47%
22:00 +21°C° 0 mm 5 m/S 756 mmHg 50%
23:00 +20°C° 0 mm 4 m/S 756 mmHg 52%

28 September, Montag

Zeit Temperatur Niederschläge Wind Luftdruck Luftfeuchtigkeit
00:00 +19°C° 0 mm 4 m/S 756 mmHg 54%
01:00 +19°C° 0 mm 3 m/S 756 mmHg 54%
02:00 +18°C° 0 mm 3 m/S 757 mmHg 55%
03:00 +18°C° 0 mm 2 m/S 757 mmHg 56%
04:00 +18°C° 0 mm 2 m/S 757 mmHg 57%
05:00 +18°C° 0 mm 2 m/S 757 mmHg 57%
06:00 +18°C° 0 mm 2 m/S 758 mmHg 58%
07:00 +19°C° 0 mm 3 m/S 758 mmHg 51%
08:00 +21°C° 0 mm 3 m/S 758 mmHg 44%
09:00 +23°C° 0 mm 4 m/S 758 mmHg 37%
10:00 +25°C° 0 mm 4 m/S 758 mmHg 34%
11:00 +27°C° 0 mm 4 m/S 757 mmHg 32%
12:00 +28°C° 0 mm 4 m/S 757 mmHg 29%
13:00 +28°C° 0 mm 4 m/S 757 mmHg 28%
14:00 +29°C° 0 mm 4 m/S 757 mmHg 26%
15:00 +30°C° 0 mm 4 m/S 757 mmHg 25%
16:00 +28°C° 0 mm 4 m/S 757 mmHg 27%
17:00 +27°C° 0 mm 4 m/S 757 mmHg 28%
18:00 +25°C° 0 mm 3 m/S 757 mmHg 30%
19:00 +23°C° 0 mm 4 m/S 757 mmHg 34%
20:00 +21°C° 0 mm 4 m/S 758 mmHg 38%
21:00 +20°C° 0 mm 4 m/S 758 mmHg 43%
22:00 +19°C° 0 mm 4 m/S 758 mmHg 47%
23:00 +18°C° 0 mm 3 m/S 758 mmHg 51%

29 September, Dienstag

Zeit Temperatur Niederschläge Wind Luftdruck Luftfeuchtigkeit
00:00 +18°C° 0 mm 3 m/S 758 mmHg 54%
01:00 +17°C° 0 mm 2 m/S 758 mmHg 56%
02:00 +17°C° 0 mm 2 m/S 757 mmHg 58%
03:00 +18°C° 0 mm 1 m/S 757 mmHg 60%
04:00 +16°C° 0 mm 1 m/S 757 mmHg 61%
05:00 +16°C° 0 mm 1 m/S 757 mmHg 63%
06:00 +15°C° 0 mm 0 m/S 757 mmHg 64%
07:00 +19°C° 0 mm 1 m/S 757 mmHg 58%
08:00 +21°C° 0 mm 1 m/S 757 mmHg 52%
09:00 +23°C° 0 mm 2 m/S 757 mmHg 46%
10:00 +24°C° 0 mm 2 m/S 756 mmHg 42%
11:00 +25°C° 0 mm 2 m/S 756 mmHg 38%
12:00 +27°C° 0 mm 3 m/S 755 mmHg 34%
13:00 +27°C° 0 mm 3 m/S 755 mmHg 32%
14:00 +28°C° 0 mm 3 m/S 754 mmHg 30%
15:00 +28°C° 0 mm 3 m/S 754 mmHg 28%
16:00 +27°C° 0 mm 3 m/S 754 mmHg 30%
17:00 +26°C° 0 mm 3 m/S 754 mmHg 31%
18:00 +24°C° 0 mm 2 m/S 754 mmHg 33%
19:00 +22°C° 0 mm 3 m/S 754 mmHg 40%
20:00 +21°C° 0 mm 4 m/S 754 mmHg 46%
21:00 +20°C° 0 mm 4 m/S 754 mmHg 53%
22:00 +19°C° 0 mm 4 m/S 754 mmHg 58%
23:00 +19°C° 0 mm 3 m/S 754 mmHg 62%

30 September, Mittwoch

Zeit Temperatur Niederschläge Wind Luftdruck Luftfeuchtigkeit
00:00 +18°C° 0 mm 2 m/S 753 mmHg 67%
01:00 +17°C° 0 mm 2 m/S 753 mmHg 68%
02:00 +17°C° 0 mm 2 m/S 753 mmHg 70%
03:00 +18°C° 0 mm 1 m/S 752 mmHg 72%
04:00 +16°C° 0 mm 1 m/S 752 mmHg 73%
05:00 +16°C° 0 mm 1 m/S 752 mmHg 74%
06:00 +16°C° 0 mm 1 m/S 752 mmHg 75%
07:00 +19°C° 0 mm 1 m/S 752 mmHg 68%
08:00 +20°C° 0 mm 2 m/S 752 mmHg 61%
09:00 +21°C° 0 mm 2 m/S 751 mmHg 54%
10:00 +24°C° 0 mm 3 m/S 751 mmHg 50%
11:00 +25°C° 0 mm 3 m/S 751 mmHg 47%
12:00 +26°C° 0 mm 3 m/S 750 mmHg 43%
13:00 +26°C° 0 mm 3 m/S 750 mmHg 41%
14:00 +27°C° 0 mm 3 m/S 749 mmHg 39%
15:00 +28°C° 0 mm 3 m/S 749 mmHg 37%
16:00 +26°C° 0 mm 3 m/S 749 mmHg 41%
17:00 +25°C° 0 mm 3 m/S 749 mmHg 45%
18:00 +24°C° 0 mm 2 m/S 749 mmHg 49%
19:00 +22°C° 0 mm 3 m/S 750 mmHg 51%
20:00 +21°C° 0 mm 3 m/S 750 mmHg 52%
21:00 +20°C° 0 mm 4 m/S 750 mmHg 54%
22:00 +19°C° 0 mm 3 m/S 750 mmHg 57%
23:00 +19°C° 0 mm 3 m/S 750 mmHg 59%
Mehr zeigen